| time (UTC) | temp F | wind direction | speed MPH | gust MPH | rain 1hr in | rain 24hr in | rain mn in | humidity % | barometer mb |
| 20260906093056 | 71 | 309 | 0.0 | 0.0 | 0.00 | 0.00 | 0.00 | 88 | 1011.8 |
| 20260906091546 | 70 | 310 | 0.0 | 0.0 | 0.00 | 0.00 | 0.00 | 88 | 1011.9 |
| 20260906090046 | 69 | 310 | 0.0 | 0.0 | 0.00 | 0.00 | 0.00 | 86 | 1011.8 |
| 20260906084548 | 70 | 309 | 0.0 | 0.0 | 0.00 | 0.00 | 0.00 | 86 | 1012.0 |
| 20260906083044 | 69 | 309 | 0.0 | 0.0 | 0.00 | 0.00 | 0.00 | 86 | 1011.9 |
| 20260906081550 | 69 | 310 | 0.0 | 0.0 | 0.00 | 0.00 | 0.00 | 85 | 1012.0 |
| 20260906080042 | 69 | 310 | 0.0 | 0.0 | 0.00 | 0.00 | 0.00 | 83 | 1012.1 |
| 20260906074540 | 70 | 309 | 0.0 | 0.0 | 0.00 | 0.00 | 0.00 | 82 | 1012.0 |
| 20260906073050 | 70 | 310 | 0.0 | 0.0 | 0.00 | 0.00 | 0.00 | 81 | 1012.0 |
| 20260906071535 | 70 | 309 | 0.0 | 0.0 | 0.00 | 0.00 | 0.00 | 81 | 1012.1 |
| 20260906070039 | 71 | 310 | 0.0 | 0.0 | 0.00 | 0.00 | 0.00 | 80 | 1012.2 |
| 20260906064532 | 71 | 309 | 0.0 | 0.0 | 0.00 | 0.00 | 0.00 | 79 | 1012.0 |
| 20260906063032 | 72 | 309 | 0.0 | 0.0 | 0.00 | 0.00 | 0.00 | 79 | 1011.9 |
| 20260906061531 | 72 | 309 | 0.0 | 0.0 | 0.00 | 0.00 | 0.00 | 78 | 1011.9 |
| 20260906060030 | 73 | 310 | 0.0 | 0.0 | 0.00 | 0.00 | 0.00 | 76 | 1012.1 |
| 20260906054530 | 74 | 310 | 0.0 | 0.0 | 0.00 | 0.00 | 0.00 | 75 | 1012.3 |
| 20260906053036 | 74 | 309 | 0.0 | 0.0 | 0.00 | 0.00 | 0.00 | 73 | 1012.4 |
| 20260906051529 | 75 | 309 | 0.0 | 2.0 | 0.00 | 0.00 | 0.00 | 72 | 1012.3 |
| 20260906050032 | 75 | 323 | 0.0 | 0.0 | 0.00 | 0.00 | 0.00 | 74 | 1012.3 |
| 20260906044530 | 75 | 303 | 1.0 | 5.0 | 0.00 | 0.00 | 0.00 | 76 | 1012.3 |
| 20260906043039 | 75 | 306 | 0.0 | 5.0 | 0.00 | 0.00 | 0.00 | 75 | 1012.2 |
| 20260906041527 | 75 | 304 | 0.0 | 0.0 | 0.00 | 0.00 | 0.00 | 75 | 1012.0 |
| 20260906040027 | 75 | 304 | 0.0 | 0.0 | 0.00 | 0.00 | 0.00 | 76 | 1011.9 |
| 20260906034528 | 74 | 304 | 0.0 | 0.0 | 0.00 | 0.00 | 0.00 | 77 | 1011.9 |
| 20260906033026 | 74 | 304 | 0.0 | 0.0 | 0.00 | 0.00 | 0.00 | 79 | 1011.8 |
| 20260906031525 | 75 | 304 | 0.0 | 0.0 | 0.00 | 0.00 | 0.00 | 83 | 1011.7 |
| 20260906030025 | 75 | 304 | 0.0 | 0.0 | 0.00 | 0.00 | 0.00 | 82 | 1011.5 |
| 20260906024525 | 75 | 304 | 0.0 | 5.0 | 0.00 | 0.00 | 0.00 | 82 | 1011.4 |
| 20260906023022 | 75 | 278 | 3.0 | 10.0 | 0.00 | 0.00 | 0.00 | 82 | 1011.5 |
| 20260906021522 | 75 | 277 | 7.0 | 11.0 | 0.00 | 0.00 | 0.00 | 81 | 1011.6 |
| 20260906020020 | 76 | 288 | 6.0 | 13.0 | 0.00 | 0.00 | 0.00 | 80 | 1011.5 |
| 20260906014528 | 76 | 268 | 7.0 | 12.0 | 0.00 | 0.00 | 0.00 | 80 | 1011.7 |
| 20260906013020 | 76 | 252 | 6.0 | 12.0 | 0.00 | 0.00 | 0.00 | 82 | 1011.6 |
| 20260906011520 | 77 | 264 | 7.0 | 13.0 | 0.00 | 0.00 | 0.00 | 81 | 1011.6 |
| 20260906010017 | 77 | 236 | 6.0 | 13.0 | 0.00 | 0.00 | 0.00 | 80 | 1011.6 |
| 20260906004619 | 78 | 235 | 4.0 | 14.0 | 0.00 | 0.00 | 0.00 | 79 | 1011.6 |
| 20260906003051 | 78 | 246 | 5.0 | 11.0 | 0.00 | 0.00 | 0.00 | 77 | 1011.6 |
| 20260906001514 | 79 | 250 | 3.0 | 11.0 | 0.00 | 0.00 | 0.00 | 75 | 1011.6 |
| 20260906000014 | 81 | 256 | 5.0 | 10.0 | 0.00 | 0.00 | 0.00 | 71 | 1011.6 |
| 20260905234512 | 80 | 304 | 7.0 | 12.0 | 0.00 | 0.00 | 0.00 | 70 | 1011.5 |
| 20260905233013 | 80 | 286 | 7.0 | 12.0 | 0.00 | 0.00 | 0.00 | 68 | 1011.7 |
| 20260905231514 | 81 | 242 | 7.0 | 12.0 | 0.00 | 0.00 | 0.00 | 66 | 1011.6 |
| 20260905230008 | 81 | 249 | 6.0 | 11.0 | 0.00 | 0.00 | 0.00 | 67 | 1011.7 |
| 20260905224507 | 81 | 280 | 7.0 | 12.0 | 0.00 | 0.00 | 0.00 | 66 | 1011.9 |
| 20260905223006 | 82 | 265 | 6.0 | 12.0 | 0.00 | 0.00 | 0.00 | 68 | 1012.1 |
| 20260905221503 | 81 | 304 | 8.0 | 13.0 | 0.00 | 0.00 | 0.00 | 69 | 1012.1 |
| 20260905220002 | 81 | 192 | 7.0 | 13.0 | 0.00 | 0.00 | 0.00 | 65 | 1012.2 |
| 20260905214600 | 80 | 261 | 6.0 | 14.0 | 0.00 | 0.00 | 0.00 | 67 | 1012.4 |
| 20260905213102 | 80 | 248 | 7.0 | 12.0 | 0.00 | 0.00 | 0.00 | 66 | 1012.6 |
| 20260905211557 | 81 | 257 | 8.0 | 13.0 | 0.00 | 0.00 | 0.00 | 65 | 1012.6 |
| 20260905210056 | 80 | 269 | 7.0 | 13.0 | 0.00 | 0.00 | 0.00 | 70 | 1012.7 |
| 20260905204555 | 80 | 269 | 5.0 | 13.0 | 0.00 | 0.00 | 0.00 | 71 | 1012.7 |
| 20260905203059 | 80 | 281 | 8.0 | 13.0 | 0.00 | 0.00 | 0.00 | 68 | 1012.9 |
| 20260905201553 | 81 | 256 | 6.0 | 13.0 | 0.00 | 0.00 | 0.00 | 69 | 1013.0 |
| 20260905200056 | 80 | 261 | 6.0 | 12.0 | 0.00 | 0.00 | 0.00 | 70 | 1013.2 |
| 20260905194552 | 81 | 274 | 7.0 | 12.0 | 0.00 | 0.00 | 0.00 | 70 | 1013.4 |
| 20260905193051 | 81 | 257 | 5.0 | 11.0 | 0.00 | 0.00 | 0.00 | 70 | 1013.6 |
| 20260905191550 | 81 | 227 | 4.0 | 10.0 | 0.00 | 0.00 | 0.00 | 70 | 1013.8 |
| 20260905190055 | 81 | 277 | 3.0 | 10.0 | 0.00 | 0.00 | 0.00 | 69 | 1014.0 |
| 20260905184556 | 81 | 227 | 3.0 | 10.0 | 0.00 | 0.00 | 0.00 | 69 | 1014.1 |
| 20260905183050 | 80 | 217 | 3.0 | 11.0 | 0.00 | 0.00 | 0.00 | 71 | 1014.2 |
| 20260905181542 | 79 | 302 | 3.0 | 8.0 | 0.00 | 0.00 | 0.00 | 71 | 1014.0 |
| 20260905180040 | 79 | 219 | 3.0 | 7.0 | 0.00 | 0.00 | 0.00 | 72 | 1014.1 |
| 20260905174539 | 78 | 279 | 2.0 | 9.0 | 0.00 | 0.00 | 0.00 | 74 | 1014.1 |
| 20260905173038 | 78 | 259 | 3.0 | 8.0 | 0.00 | 0.00 | 0.00 | 74 | 1014.1 |
| 20260905171538 | 78 | 278 | 1.0 | 7.0 | 0.00 | 0.00 | 0.00 | 75 | 1014.1 |
| 20260905170038 | 77 | 275 | 2.0 | 6.0 | 0.00 | 0.00 | 0.00 | 75 | 1014.2 |
| 20260905164537 | 77 | 285 | 1.0 | 6.0 | 0.00 | 0.00 | 0.00 | 77 | 1014.2 |
| 20260905163033 | 76 | 271 | 1.0 | 7.0 | 0.00 | 0.00 | 0.00 | 78 | 1014.1 |
| 20260905161531 | 77 | 280 | 1.0 | 4.0 | 0.00 | 0.00 | 0.00 | 77 | 1014.0 |
| 20260905160026 | 75 | 302 | 0.0 | 0.0 | 0.00 | 0.00 | 0.00 | 78 | 1014.0 |
| 20260905154522 | 74 | 300 | 0.0 | 0.0 | 0.00 | 0.00 | 0.00 | 81 | 1013.9 |
| 20260905153022 | 72 | 34 | 1.0 | 3.0 | 0.00 | 0.00 | 0.00 | 83 | 1013.6 |
| 20260905151512 | 70 | 29 | 0.0 | 0.0 | 0.00 | 0.00 | 0.00 | 88 | 1013.7 |
| 20260905150008 | 68 | 29 | 0.0 | 0.0 | 0.00 | 0.00 | 0.00 | 94 | 1013.6 |
| 20260905144506 | 65 | 30 | 0.0 | 0.0 | 0.00 | 0.00 | 0.00 | 96 | 1013.4 |
| 20260905143013 | 63 | 289 | 0.0 | 0.0 | 0.00 | 0.00 | 0.00 | 96 | 1013.3 |
| 20260905141503 | 61 | 289 | 0.0 | 0.0 | 0.00 | 0.00 | 0.00 | 95 | 1013.1 |
| 20260905140004 | 61 | 289 | 0.0 | 0.0 | 0.00 | 0.00 | 0.00 | 94 | 1013.0 |
| 20260905134505 | 61 | 289 | 0.0 | 0.0 | 0.00 | 0.00 | 0.00 | 94 | 1013.0 |
| 20260905133001 | 62 | 289 | 0.0 | 0.0 | 0.00 | 0.00 | 0.00 | 94 | 1012.8 |
| 20260905131610 | 62 | 289 | 0.0 | 0.0 | 0.00 | 0.00 | 0.00 | 94 | 1012.7 |
| 20260905130100 | 62 | 289 | 0.0 | 0.0 | 0.00 | 0.00 | 0.00 | 94 | 1012.6 |
| 20260905124558 | 62 | 289 | 0.0 | 0.0 | 0.00 | 0.00 | 0.00 | 94 | 1012.6 |
| 20260905123058 | 63 | 289 | 0.0 | 0.0 | 0.00 | 0.00 | 0.00 | 94 | 1012.5 |
| 20260905121554 | 63 | 289 | 0.0 | 0.0 | 0.00 | 0.00 | 0.00 | 94 | 1012.6 |
| 20260905120105 | 63 | 289 | 0.0 | 0.0 | 0.00 | 0.00 | 0.00 | 94 | 1012.6 |
| 20260905114554 | 63 | 289 | 0.0 | 0.0 | 0.00 | 0.00 | 0.00 | 94 | 1012.7 |
| 20260905113052 | 63 | 289 | 0.0 | 0.0 | 0.00 | 0.00 | 0.00 | 93 | 1012.6 |
| 20260905111606 | 64 | 289 | 0.0 | 0.0 | 0.00 | 0.00 | 0.00 | 94 | 1012.6 |
| 20260905110054 | 64 | 289 | 0.0 | 0.0 | 0.00 | 0.00 | 0.00 | 94 | 1012.8 |
| 20260905104547 | 64 | 289 | 0.0 | 0.0 | 0.00 | 0.00 | 0.00 | 94 | 1012.8 |
| 20260905103047 | 64 | 289 | 0.0 | 0.0 | 0.00 | 0.00 | 0.00 | 93 | 1012.8 |
| 20260905101548 | 64 | 289 | 0.0 | 0.0 | 0.00 | 0.00 | 0.00 | 93 | 1012.8 |
| 20260905100046 | 65 | 289 | 0.0 | 0.0 | 0.00 | 0.00 | 0.00 | 93 | 1012.9 |
| 20260905094544 | 65 | 289 | 0.0 | 0.0 | 0.00 | 0.00 | 0.00 | 93 | 1012.9 |